PulseSat

PulseSat

GSAT0204 (PRN E22)

Last updated on March 23, 2019, 3:11 a.m. UTC

1 40545U 15017B   19081.25770998 -.00000052  00000-0  00000+0 0  9995
2 40545  56.1170  54.0009 0002475 272.3151  87.6287  1.70475132 24797
UTC
Height (km)
Latitude
Longitude
Inclination
Orbital Period

Next 30 passes for location: Hong Kong

Rise time Rise Azimuth (degrees) Set time Set Azimuth (degrees) Duration Max altitude (degrees)

No matching passes for this satellites

PulseSat

PulseSat is the new satellites software and hardware trackering solution by Pulsely.
Satellite Two Line Element Set source: US Air Force Space Command

Download PulseSat for iOS
© 2017 Pulsely Limited